Weather Service Report


475 
ASCA42 TJSJ 251310
RWRPR 
PUERTO RICO/U.S. VIRGIN ISLANDS HOURLY WEATHER ROUNDUP
NATIONAL WEATHER SERVICE SAN JUAN PR
900 AM AST SAT APR 25 2015

PRZ001-004-251400-
PUERTO RICO
  
CITY           SKY/WX    TMP DP  RH WIND       PRES   REMARKS
SAN JUAN LMM   MOSUNNY   84  70  61 VRB7      30.00R                  
AGUADILLA      SUNNY     81  70  69 CALM      30.01R                  
CEIBA          MOSUNNY   84  72  65 S10       30.03R                  
$$

PRZ006-007-251400-
U.S. VIRGIN ISLANDS
  
CITY           SKY/WX    TMP DP  RH WIND       PRES   REMARKS
CHARLOTTE AMA  MOSUNNY   82  73  74 SE6       30.01R                  
CHRISTIANSTED  SUNNY     82  73  74 SE9       30.02R                  
$$

HOURLY WEATHER ROUNDUP FOR THE NEWS MEDIA
  
CITY           SKY/WX    TMP DP  RH WIND       PRES   REMARKS
ORLANDO        SUNNY     77  70  79 S8        29.94S                  
NEW YORK       PTSUNNY   45  23  42 NW9       29.89F                  
NEWARK         PTSUNNY   44  23  43 W10       29.91F                  
CHICAGO        LGT RAIN  44  38  79 E12G18    29.80R                  
HARTFORD       SUNNY     41  24  51 W10G20    29.79F                  
BOSTON         MOSUNNY   43  24  47 NW13      29.78F                  
DALLAS         SUNNY     62  59  90 S5        29.72S                  
PHILADELPHIA   CLOUDY    45  22  40 NW10      29.96S                  
LOS ANGELES    MOCLDY    57  51  80 CALM      29.98S                  
WASHINGTON DC  CLOUDY    46  17  31 NE8       29.99R                  

Return to Home page


Western Regional Climate Center, wrcc@dri.edu